Miscellaneous Local Product
Issued by NWS North Platte, NE

Home | Current Version | Previous Version | Graphics & Text | Print | Product List | Glossary On
Versions: 1 2 3 4 5 6 7 8 9 10 11 12 13 14 15 16 17 18 19 20 21 22 23 24 25 26 27 28 29 30 31 32 33 34 35 36 37 38 39 40 41 42 43 44 45 46 47 48 49 50
000
AXUS43 KLBF 262210
MISLBF


WESTERN AND NORTH CENTRAL NEBRASKA HOURLY WEATHER ROUNDUP
NATIONAL WEATHER SERVICE NORTH PLATTE NE
500 PM CDT WED APR 26 2017

NOTE: "FAIR" INDICATES FEW OR NO CLOUDS BELOW 12,000 FEET WITH NO
SIGNIFICANT WEATHER AND/OR OBSTRUCTIONS TO VISIBILITY.

NOTE: STATIONS NOT REPORTING VARIABLES SUCH AS SKY/WEATHER OR
PRESSURE ARE PROVIDED BY RAWS AND APRS NETWORKS AND ARE NOT UNDER
NATIONAL WEATHER SERVICE QUALITY CONTROL.

...OBSERVATIONS IN AND NEAR THE EASTERN PANHANDLE OF NEBRASKA...

CITY           SKY/WX    TMP DP  RH WIND       PRES   REMARKS
PINE RIDGE     MOSUNNY   46  32  58 N10       29.72F
CHADRON        SUNNY     47  34  60 NE9       29.71F
ALLIANCE       SUNNY     52  35  52 NE13      29.68F
SIDNEY         PTSUNNY   55  30  38 N12       29.68F
CRESCENT LAKE    N/A     53  33  47 N9G20       N/A
$$

...OBSERVATIONS IN NORTHERN NEBRASKA AND FAR SOUTHERN SOUTH DAKOTA...

CITY           SKY/WX    TMP DP  RH WIND       PRES   REMARKS
WINNER         CLOUDY    46  30  53 NW16      29.72F
VALENTINE      CLOUDY    43  26  51 N14G24    29.75F
THEDFORD       SUNNY     46  30  54 N13G22    29.73F
AINSWORTH      CLOUDY    39  31  70 N18G24    29.74F WCI  30
O`NEILL        CLOUDY    42  28  59 NW17      29.72S
ORD            CLOUDY    42  30  62 N15       29.72F
BROKEN BOW     PTSUNNY   46  30  53 N13G22    29.72F
VALENTINE NWR    N/A     39  27  62 N14G22      N/A  WCI  31
HALSEY           N/A     46  29  52 NW9G18      N/A
BUTTE            N/A     41  32  69 N15G23      N/A
CHAMBERS         N/A     42  28  58 N12         N/A
EWING            N/A     41  33  73 NW13G20     N/A
$$

...OBSERVATIONS IN SOUTHWEST NEBRASKA AND FAR NORTHEAST COLORADO...

CITY           SKY/WX    TMP DP  RH WIND       PRES   REMARKS
HOLYOKE        FAIR      61  32  33 CALM      29.70F
IMPERIAL       SUNNY     57  30  35 N14       29.70F
OGALLALA       SUNNY     57  28  33 N13G20    29.69F
NORTH PLATTE   SUNNY     53  30  41 N12G22    29.71F
MCCOOK         SUNNY     57  30  35 NW12G24   29.71F
LEXINGTON      PTSUNNY   48  32  53 N15G21    29.73S
STAPLETON        N/A     47  32  56 CALM        N/A
GOTHENBURG       N/A     48  28  46 NW10        N/A
CALLAWAY         N/A     47  35  62 N13         N/A
$$

...OBSERVATIONS IN CENTRAL LINCOLN COUNTY AREA...

CITY           SKY/WX    TMP DP  RH WIND       PRES   REMARKS
N.P. AIRPORT   SUNNY     53  30  41 N12G22    29.71F
N.P. DOWNTOWN    N/A     50  32  50 N8G16       N/A
N.P. SOUTHEAST   N/A     51  30  44 N6G17       N/A
N.P. HILLCREST   N/A     50  32  50 N12G18      N/A
$$

...SOME OBSERVATIONS FROM AROUND THE REGION...

CITY           SKY/WX    TMP DP  RH WIND       PRES   REMARKS
DENVER         PTSUNNY   58  21  24 W8        29.68F
LIMON          MOSUNNY   55  27  34 NW7       29.71F
ASPEN          CLOUDY    42  29  59 N14       29.82F
LARAMIE        CLOUDY    41  28  60 W20       29.73F
CASPER         CLOUDY    51  29  42 SW8G18    29.65F
CHEYENNE       CLOUDY    48  28  46 NW21G33   29.72R
SCOTTSBLUFF    SUNNY     60  31  33 MISG      29.65F
GRAND ISLAND   CLOUDY    45  31  58 NW21      29.72F
OMAHA          CLOUDY    43  33  68 NW18      29.65F
SIOUX FALLS    CLOUDY    37  30  75 N18       29.67S WCI  27
PIERRE         SUNNY     48  27  44 N12G21    29.72F
RAPID CITY     CLOUDY    38  28  67 N9        29.75F WCI  31
BISMARCK       PTSUNNY   46  28  49 N13G22    29.76F
KANSAS CITY    CLOUDY    50  39  66 N15       29.58F
HILL CITY      MOSUNNY   57  32  38 N14G22    29.71F
WICHITA        PTSUNNY   54  37  52 NW18G26   29.66F
DODGE CITY     PTSUNNY   58  33  39 N18       29.71F
OKLAHOMA CITY  CLOUDY    54  40  59 NW18      29.68S
DALLAS         CLOUDY    64  47  53 NW25      29.67S
AMARILLO       MOSUNNY   64  34  32 NW21G29   29.78F
$$




USA.gov is the U.S. government's official web portal to all federal, state and local government web resources and services.